Location: Arthez
(43.0833°N, 0.2500°W)
Time: 11:43:07
(UTC+00:00)

Cosmos 304 Rocket - Pass Details

Date: 01 June 2022
Orbit: 679 x 686 km, 74.0° (Epoch: 01 July)

Event Time Altitude Azimuth Distance (km) Brightness Sun altitude
Exits shadow 01:41:37 - 278° (W) 2,266 6.3 -20.7°
Reaches altitude 10° 01:42:23 10° 286° (WNW) 2,137 6.2 -20.7°
Maximum altitude 01:44:16 12° 309° (NW) 1,998 6.3 -20.5°
Drops below altitude 10° 01:46:10 10° 332° (NNW) 2,142 6.8 -20.4°
Sets 01:50:01 0° 3° (N) 3,063 8.3 -20.0°
